星链-31596 (STARLINK-31596 )

导读

STARLINK-31596是美国SpaceX星链互联网星座的成员卫星,于2024年3月25日发射升空。星链计划旨在通过近地轨道卫星群提供全球高速互联网接入服务,该卫星服役后进一步扩充了星链星座的规模,增强星座网络覆盖密度与服务稳定性,为全球用户提供更低时延的卫星互联网服务。

基本信息
目录编号:
59336
目录名称:
STARLINK-31596
国际标识:
2024-057S
轨道中心:
EARTH
卫星名称:
星链-31596
卫星全名:
星链-31596 (STARLINK-31596 )
卫星状态:
在轨 (已飞行901 天)
发射日期:
2024-03-25 UTC
国别 :
美国 (US)
星等 :
--
该卫星已列入 空间交会检测服务 Space Conjunction Data Service (SCDS) ,当前飞行风险评估等级: 无高风险
轨道信息
数据来源 国际轨道数据 AOE轨道数据
星历时间 2026-09-11T14:20:52+0800
18小时前
查看轨道信息
2026-09-10T21:00:00+0800
1天前
查看轨道信息
半长轴 6861.205km 6861.21km
偏心率 0.0000816 0.0001126
轨道倾角 43.000° 43.000°
近地点辐角 267.082° 260.390°
升交点赤经 218.756° 222.839°
平近点角 92.994° 80.040°
近地点 482.508km 482.3km
远地点 483.628km 483.846km
周期 94.267分钟 94.267分钟
每日圈数 15.275738 15.275721
详细信息
固有亮度:
5
最大亮度:
0.3
卫星平台:
Starlink v2.0 mini
覆盖范围:
全球
运营商:
太空探索技术公司
运营商所在国:
美国
制造商(研发单位):
太空探索技术公司
制造商所在国:
美国
使用方式:
暂无
卫星简介
星链(Starlink)计划是由太空探索技术公司(SpaceX)提出的一个巨型低轨卫星互联网星座项目,计划在2019年至2024年间在太空搭建由约1.2万颗卫星组成的“星链”网络,其中1584颗将部署在地球上空550千米处的近地轨道,并从2020年开始工作。该卫星仍在工作。
2D轨道图
3D轨道图
轨道高度分析图
轨道倾角分析图
轨道综合分析图
查看轨道综合分析图
交会数据列表
事件ID 空间交会对象 最接近时刻(TCA) 交会距离 交会风险概率(CRP) 交会风险指数(CRI) 操作
CDM_260914-044005-806905-933621
2026-09-14T
04:40:07+0000
0.376 km
远距离
2.07969E-4 高风险 0.81
CDM_260912-200605-933606-704921
2026-09-12T
20:06:08+0000
0.791 km
远距离
4.502421E-5 中风险 0.68
CDM_260914-061405-806905-933621
2026-09-14T
06:14:17+0000
1.001 km
极远距离
1.269344E-5 中风险 0.57
CDM_260914-030505-806905-933621
2026-09-14T
03:05:58+0000
1.084 km
极远距离
9.655072E-6 低风险 0.55
CDM_260913-110005-933606-704921
2026-09-13T
11:00:35+0000
1.423 km
极远距离
6.109864E-6 低风险 0.51
CDM_260912-214005-933606-704921
2026-09-12T
21:40:17+0000
1.452 km
极远距离
5.724416E-6 低风险 0.5
CDM_260913-092605-933606-704921
2026-09-13T
09:26:25+0000
1.851 km
极远距离
2.740543E-6 低风险 0.44
CDM_260914-074805-806905-933621
2026-09-14T
07:48:26+0000
1.952 km
极远距离
1.560222E-6 低风险 0.39
CDM_260914-013105-806905-933621
2026-09-14T
01:31:49+0000
2.013 km
极远距离
1.450717E-6 低风险 0.38
CDM_260912-183105-933606-704921
2026-09-12T
18:31:59+0000
2.960 km
极远距离
1.089836E-6 低风险 0.36
与全量物体交会距离演化趋势
与全量物体交会风险概率演化趋势